www.pogodaiklimat.ru

Погода и климат >> Архив погоды >> Бразилия >> Urubici


ПОГОДА в Urubici

  • Прогноз погоды в Urubici
  • Монитор погоды в Urubici
  • Климат города

АРХИВ ПОГОДЫ в Urubici

Время (UTC), дата Ветер
(напр.,м/с)
 
Видим.   Явления Облачность Т
(С)
Тd
(С)
f
(%)
Тe
(С)
Тes
(С)
Комфортность P
(гПа)
Po
(гПа)
Тmin
(С)
Tmax
(С)
R
(мм)
R24
(мм)
S
(см)
02 13.11 ЮЗ 6
{9}
н/о н/о +7.2 -34.7 3 +4 +4 1015.7 816.5
01 13.11 Ю 6
{10}
н/о н/о +8.1 -34.6 3 +5 +5 1015.2 816.7
03 13.11 Ю 7
{10}
н/о н/о +7.1 -35.4 3 +4 +4 1015.3 816.1
04 13.11 Ю 6
{11}
н/о н/о +7.8 -34.0 3 +5 +5 1014.3 815.8
05 13.11 Ю 9
{14}
н/о н/о +8.7 -33.1 3 +5 +5 1013.0 815.3
08 13.11 Ю 7
{13}
н/о н/о +8.7 -32.8 3 +6 +6 1014.0 816.1
07 13.11 Ю 8
{12}
н/о н/о +9.3 -31.6 4 +6 +6 1012.8 815.5
09 13.11 Ю 6
{11}
н/о н/о +9.6 -32.7 3 +7 +7 1014.4 817.0
10 13.11 Ю 7
{12}
н/о н/о +11.5 -31.3 3 +9 +9 1013.7 817.6
11 13.11 Ю 8
{12}
н/о н/о +11.9 -29.0 4 +9 +9 1013.6 817.8
12 13.11 Ю 7
{11}
н/о н/о +12.6 -27.9 4 +11 +11 1014.2 818.7
14 13.11 Ю 5
{8}
н/о н/о +14.0 -27.1 4 +13 +13 1014.8 820.0
13 13.11 Ю 6
{9}
н/о н/о +13.1 -27.5 4 +12 +12 1014.7 819.4
15 13.11 Ю 4
{7}
н/о н/о +13.8 -28.2 4 +13 +13 1015.3 820.3
16 13.11 Ю 4
{8}
н/о н/о +14.0 -29.2 3 +13 +13 1015.4 820.5
17 13.11 Ю 4
{6}
н/о н/о +14.2 -27.6 4 +14 +14 1015.1 820.4
18 13.11 Ю 4
{6}
н/о н/о +14.3 -27.1 4 +14 +14 1014.9 820.3
20 13.11 Ю 4
{6}
н/о н/о +12.5 -29.7 4 +12 +12 1016.3 820.3
19 13.11 Ю 4
{5}
н/о н/о +14.2 -28.1 4 +14 +14 1015.0 820.3
21 13.11 Ю 3
{5}
н/о н/о +11.5 -30.6 4 +11 +11 1017.3 820.5
22 13.11 Ю 3
{4}
н/о н/о +9.8 -31.6 4 +9 +9 1019.1 820.9
23 13.11 Ю 3
{4}
н/о н/о +10.6 -31.1 4 +10 +10 1018.9 821.2
00 14.11 Ю 4
{5}
н/о н/о +10.2 -31.6 4 +9 +9 1019.3 821.3
02 14.11 Ю 3
{5}
н/о н/о +10.3 -32.1 3 +9 +9 1019.6 821.6
01 14.11 Ю 3
{5}
н/о н/о +10.3 -31.9 3 +9 +9 1019.8 821.8
03 14.11 Ю 4
{5}
н/о н/о +10.2 -32.0 3 +9 +9 1019.3 821.3
04 14.11 Ю 4
{6}
н/о н/о +10.4 -32.1 3 +9 +9 1018.4 820.7
05 14.11 Ю 4
{6}
н/о н/о +10.4 -32.2 3 +9 +9 1017.5 820.0
06 14.11 Ю 5
{6}
н/о н/о +10.0 -33.4 3 +8 +8 1017.7 819.9
08 14.11 Ю 4
{5}
н/о н/о +10.4 -31.0 4 +9 +9 1018.1 820.5
07 14.11 Ю 4
{5}
н/о н/о +10.5 -31.7 3 +9 +9 1017.4 820.0
09 14.11 Ю 4
{5}
н/о н/о +11.5 -32.0 3 +10 +10 1018.0 821.1
10 14.11 Ю 3
{6}
н/о н/о +13.3 -29.2 4 +13 +13 1017.7 821.9
11 14.11 Ю 2
{5}
н/о н/о +14.4 -28.2 4 +15 +15 1017.4 822.4
12 14.11 Ю 2
{3}
н/о н/о +15.1 -28.4 3 +16 +16 1017.5 822.9
14 14.11 Ю 2
{3}
н/о н/о +15.5 -29.7 3 +16 +16 1018.0 823.5
13 14.11 Ю 1
{3}
н/о н/о +16.4 -26.5 4 +17 +17 1017.2 823.4
15 14.11 Ю 2
{3}
н/о н/о +15.1 -28.1 4 +16 +16 1017.9 823.2
16 14.11 Ю 3
{4}
н/о н/о +15.8 -26.8 4 +16 +16 1016.9 822.8
17 14.11 Ю 3
{5}
н/о н/о +16.1 -27.8 3 +16 +16 1016.2 822.4
18 14.11 Ю 3
{4}
н/о н/о +16.5 -27.5 3 +17 +17 1015.3 821.9
20 14.11 ЮВ 2
{4}
н/о н/о +15.8 -28.7 3 +16 +16 1015.5 821.7
19 14.11 Ю 2
{5}
н/о н/о +16.1 -29.3 3 +16 +16 1015.4 821.8
21 14.11 В 1
{3}
н/о н/о +14.1 -30.6 3 +15 +15 1016.8 821.7
22 14.11 СВ 2
{3}
н/о н/о +12.6 -31.7 3 +13 +13 1018.2 821.9
23 14.11 С 3
{4}
н/о н/о +11.9 -32.2 3 +11 +11 1018.7 821.9
00 15.11 С 5
{6}
н/о н/о +11.9 -32.1 3 +10 +10 1018.6 821.8
02 15.11 СЗ 5
{6}
н/о н/о +12.3 -31.8 3 +11 +11 1018.0 821.6
01 15.11 С 5
{6}
н/о н/о +12.5 -31.7 3 +11 +11 1018.1 821.8
03 15.11 СЗ 5
{6}
н/о н/о +11.9 -31.5 3 +10 +10 1017.7 821.1
04 15.11 СЗ 5
{7}
н/о н/о +11.5 -32.3 3 +10 +10 1017.5 820.7
05 15.11 СЗ 5
{7}
н/о н/о +11.0 -32.6 3 +9 +9 1016.9 819.9
06 15.11 СЗ 6
{7}
н/о н/о +10.6 -33.1 3 +9 +9 1016.9 819.6
08 15.11 СЗ 6
{8}
н/о н/о +10.1 +8 +8 1017.4 819.7
07 15.11 СЗ 6
{8}
н/о н/о +10.4 -33.1 3 +8 +8 1016.9 819.5
09 15.11 СЗ 6
{9}
н/о н/о +10.6 -33.0 3 +8 +8 1017.5 820.1
10 15.11 СЗ 7
{9}
н/о н/о +11.8 -32.2 3 +10 +10 1016.6 820.1
12 15.11 СЗ 7
{9}
н/о н/о +13.6 -30.5 3 +12 +12 1015.3 820.2
13 15.11 СЗ 6
{10}
н/о н/о +14.8 -29.8 3 +14 +14 1014.5 820.3
14 15.11 СЗ 6
{9}
н/о н/о +15.8 -29.5 3 +15 +15 1013.3 819.9
15 15.11 СЗ 7
{12}
н/о н/о +17.2 -27.7 3 +16 +16 1011.2 819.0
16 15.11 СЗ 6
{11}
н/о н/о +18.5 -27.5 3 +18 +18 1010.1 818.9
17 15.11 СЗ 6
{10}
н/о н/о +20.0 -22.8 4 +19 +19 1008.1 818.2
18 15.11 СЗ 6
{10}
н/о н/о +20.0 -26.6 3 +19 +19 1007.8 817.9
19 15.11 СЗ 7
{10}
н/о н/о +19.9 -26.1 3 +19 +19 1007.0 817.2
20 15.11 СЗ 7
{10}
н/о н/о +19.0 -27.3 3 +18 +18 1007.3 816.9
21 15.11 СЗ 7
{10}
н/о н/о +17.7 -28.2 3 +17 +17 1008.4 817.1
22 15.11 СЗ 8
{10}
н/о н/о +16.4 -29.0 3 +15 +15 1009.1 816.9
23 15.11 СЗ 8
{10}
н/о н/о +16.2 -29.2 3 +15 +15 1009.2 816.8
00 16.11 СЗ 8
{10}
н/о н/о +15.6 -29.6 3 +14 +14 1009.5 816.7
01 16.11 СЗ 11
{14}
н/о н/о +16.5 -29.0 3 +15 +15 1008.3 816.3
02 16.11 СЗ 12
{15}
н/о н/о +16.4 -29.1 3 +15 +15 1008.5 816.4
03 16.11 СЗ 12
{15}
н/о н/о +15.4 -29.7 3 +13 +13 1008.8 816.0
04 16.11 СЗ 11
{15}
н/о н/о +15.3 -29.8 3 +13 +13 1008.6 815.8
05 16.11 СЗ 11
{15}
н/о н/о +16.5 -29.0 3 +15 +15 1007.8 815.9
06 16.11 СЗ 10
{15}
н/о н/о +16.6 -28.9 3 +15 +15 1008.1 816.2
07 16.11 СЗ 10
{14}
н/о н/о +16.6 -28.9 3 +15 +15 1008.9 816.8
08 16.11 З 8
{14}
н/о н/о +16.4 -29.1 3 +15 +15 1010.0 817.6
09 16.11 З 7
{11}
н/о н/о +16.1 -29.3 3 +15 +15 1011.3 818.5
10 16.11 З 5
{9}
н/о н/о +17.1 -28.6 3 +17 +17 1011.2 819.0
11 16.11 З 6
{9}
н/о н/о +18.9 -27.4 3 +18 +18 1010.9 819.8
12 16.11 З 5
{10}
н/о н/о +20.4 -26.3 3 +19 +19 1010.4 820.3
13 16.11 ЮЗ 4
{9}
н/о н/о +20.3 -26.4 3 +19 +19 1011.4 821.0
14 16.11 З 4
{8}
н/о н/о +22.6 -24.9 3 +20 +20 1009.2 820.6
16 16.11 З 4
{8}
н/о н/о +22.4 -25.0 3 +19 +19 1008.0 819.5
17 16.11 ЮВ 2
{7}
н/о н/о +18.1 -27.9 3 +19 +19 1009.9 818.5
18 16.11 Ю 1
{4}
н/о н/о +18.2 -27.9 3 +19 +19 1008.2 817.2
20 16.11 Ю 2
{3}
н/о н/о +12.8 -31.5 3 +13 +13 1012.2 817.2 0.4
21 16.11 ЮВ 2
{4}
н/о н/о +12.8 -31.5 3 +13 +13 1012.5 817.4 0.6
23 16.11 ЮВ 4
{8}
н/о н/о +10.3 -33.2 3 +9 +9 1014.6 817.6 1
22 16.11 Ю 5
{8}
н/о н/о +11.2 -32.6 3 +9 +9 1015.5 818.9 1
00 17.11 Ю 4
{6}
н/о н/о +9.7 -33.7 3 +8 +8 1016.1 818.4 1
01 17.11 С 2
{5}
н/о н/о +9.7 -33.7 3 +10 +10 1016.1 818.4 0.6
02 17.11 С 4
{6}
н/о н/о +10.5 -33.1 3 +9 +9 1015.5 818.4
03 17.11 СЗ 5
{7}
н/о н/о +11.7 -32.3 3 +10 +10 1013.7 817.7
05 17.11 СЗ 7
{9}
н/о н/о +11.2 -32.6 3 +9 +9 1010.9 815.2 0.2
04 17.11 СЗ 4
{6}
н/о н/о +11.9 -32.1 3 +11 +11 1012.5 816.9
06 17.11 СЗ 7
{10}
н/о н/о +11.3 -32.6 3 +9 +9 1011.4 815.6
07 17.11 СЗ 5
{9}
н/о н/о +10.9 -32.8 3 +9 +9 1011.9 815.8
08 17.11 СЗ 5
{8}
н/о н/о +11.1 -32.7 3 +9 +9 1011.9 815.9 0.6
09 17.11 СЗ 5
{8}
н/о н/о +11.4 -32.5 3 +10 +10 1011.8 816.0 0.8
11 17.11 СЗ 5
{7}
н/о н/о +12.0 -32.0 3 +10 +10 1012.4 816.9 0.2
10 17.11 СЗ 6
{8}
н/о н/о +11.7 -32.3 3 +10 +10 1012.2 816.5
12 17.11 СЗ 4
{7}
н/о н/о +12.4 -31.8 3 +11 +11 1012.4 817.1
13 17.11 СЗ 4
{7}
н/о н/о +12.7 -31.6 3 +12 +12 1012.8 817.6
14 17.11 СЗ 4
{6}
н/о н/о +12.8 -31.5 3 +12 +12 1013.1 817.9
16 17.11 СЗ 4
{6}
н/о н/о +13.5 -31.1 3 +13 +13 1012.1 817.5
18 17.11 СЗ 3
{5}
н/о н/о +15.7 -29.5 3 +16 +16 1009.4 816.7
19 17.11 СЗ 3
{4}
н/о н/о +14.9 -30.1 3 +15 +15 1009.5 816.3
20 17.11 З 2
{5}
н/о н/о +14.9 -30.1 3 +15 +15 1009.4 816.2
21 17.11 З 2
{4}
н/о н/о +15.2 -29.9 3 +15 +15 1008.7 815.8 0.2
22 17.11 З 2
{3}
н/о н/о +14.2 -30.6 3 +15 +15 1009.8 816.1
23 17.11 С 1
{3}
н/о н/о +14.2 -30.6 3 +15 +15 1010.0 816.3 0.4
00 18.11
{5}
н/о н/о +13.5 -31.0 3 1010.6 816.3 11
01 18.11 С 4
{5}
н/о н/о +14.0 -30.7 3 +13 +13 1010.4 816.5 3
02 18.11 С 6
{7}
н/о н/о +13.6 -31.0 3 +12 +12 1010.2 816.1
03 18.11 С 6
{9}
н/о н/о +13.1 -31.3 3 +11 +11 1010.6 816.1 0.4
04 18.11 З 4
{9}
н/о н/о +11.2 -32.6 3 +10 +10 1012.4 816.4 8
05 18.11 З 4
{6}
н/о н/о +12.0 -32.1 3 +11 +11 1010.0 814.9 5
06 18.11 ЮЗ 5
{8}
н/о н/о +11.8 -32.2 3 +10 +10 1010.0 814.8 2
07 18.11 ЮЗ 4
{8}
н/о н/о +11.0 -32.8 3 +10 +10 1010.6 814.8 5
08 18.11 З 5
{8}
н/о н/о +11.1 -32.7 3 +9 +9 1010.0 814.4 4
09 18.11 СЗ 6
{8}
н/о н/о +11.2 -32.6 3 +9 +9 1009.6 814.1 0.2
10 18.11 СЗ 7
{9}
н/о н/о +12.0 -32.1 3 +10 +10 1008.7 813.9 0.2
11 18.11 СЗ 7
{9}
н/о н/о +12.8 -31.5 3 +11 +11 1008.6 814.3
12 18.11 СЗ 7
{9}
н/о н/о +13.0 -31.4 3 +11 +11 1008.8 814.6
13 18.11 СЗ 7
{11}
н/о н/о +12.8 -31.5 3 +11 +11 1008.9 814.5 0.2
14 18.11 СЗ 5
{8}
н/о н/о +16.2 -29.2 3 +16 +16 1006.2 814.4
05 19.11 Ю 4
{6}
н/о н/о +8.9 +7 +7 1013.0 815.4 0.2
06 19.11 Ю 4
{6}
н/о н/о +8.9 +7 +7 1012.8 815.3
08 19.11 ЮЗ 1
{3}
н/о н/о +6.6 +7 +7 1014.5 815.2 0.2
07 19.11 Ю 2
{5}
н/о н/о +6.7 +6 +6 1014.5 815.2
09 19.11 Ю 1
{2}
н/о н/о +6.7 -35.7 3 +7 +7 1015.0 815.6
10 19.11 СВ 1
{2}
н/о н/о +7.3 +9 +9 1015.2 816.2
11 19.11 СЗ 3
{5}
н/о н/о +8.6 -34.4 3 +7 +7 1014.7 816.6
12 19.11 СЗ 4
{6}
н/о н/о +11.5 -32.4 3 +10 +10 1013.0 817.0
14 19.11 СЗ 3
{5}
н/о н/о +14.8 -30.2 3 +15 +15 1010.8 817.3
13 19.11 СЗ 3
{6}
н/о н/о +13.5 -31.0 3 +13 +13 1011.6 817.1
15 19.11 СЗ 4
{7}
н/о н/о +16.1 -29.3 3 +16 +16 1010.0 817.4
16 19.11 З 4
{8}
н/о н/о +17.3 -28.5 3 +17 +17 1008.9 817.2
17 19.11 З 4
{8}
н/о н/о +18.2 -27.8 3 +18 +18 1008.1 817.1
18 19.11 З 4
{7}
н/о н/о +17.8 -28.1 3 +18 +18 1008.1 816.9
20 19.11 З 4
{6}
н/о н/о +16.6 -28.9 3 +16 +16 1008.6 816.6
19 19.11 СЗ 4
{7}
н/о н/о +17.7 -28.2 3 +18 +18 1007.9 816.7
21 19.11 З 3
{6}
н/о н/о +15.2 -29.9 3 +15 +15 1009.8 816.7
22 19.11 З 4
{5}
н/о н/о +12.8 -31.5 3 +12 +12 1012.3 817.3
23 19.11 З 3
{6}
н/о н/о +11.3 -32.6 3 +10 +10 1014.2 817.9
00 20.11 З 3
{5}
н/о н/о +9.7 -33.7 3 +9 +9 1016.2 818.5

 

Местоположение метеостанции Urubici (Бразилия): широта -28.13 долгота -49.48 высота над уровнем моря 1812 м.

В архиве по умолчанию представлена погода в Urubici за последнюю неделю. Архивные данные за месяц целиком и за предыдущие месяцы, начиная с января 2011 года, Вы можете получить, выбрав интересующий диапазон дат из раскрывающегося списка и нажав кнопку "Ввод!".

Внимание! Время в таблицах - всемирное. Для получения местного времени необходимо прибавить поправку, которая в Urubici равна -3 ч.

Смотрите также архив погоды в соседних городах и на ближайших метеорологических станциях:

Погода в Sao Joaquim (Бразилия) (47 км)
Погода в Urussanga (Бразилия) (47 км)
Погода в Ituporanga (Бразилия) (81 км)
Погода в Santa Marta (Бразилия) (83 км)
Погода в Ararangua (Бразилия) (89 км)
Погода в Sao Jose dos Ausente (Бразилия) (89 км)
Погода в Florianopolis - Sao Jose (Бразилия) (103 км)
Погода в Florianopolis (Бразилия) (105 км)
Погода в Bom Jesus (Бразилия) (110 км)
Погода в Torres (Бразилия) (136 км)

Пояснения к столбцам:

Ветер - указаны скорость ветра в м/с - средняя за 10 мин, порывы в срок и между сроками (в фигурных скобках) и направление, откуда дует ветер: С - северный, СВ - северо-восточный, В - восточный, ЮВ - юго-восточный, Ю - южный, ЮЗ - юго-западный, З - западный, СЗ - северо-западный.
Видимость - горизонтальная дальность видимости в метрах или километрах. При видимости от 1 до 10 км при отсутствии осадков обычно наблюдается дымка, при ухудшении видимости до 1 км и менее - туман. В сухую погоду видимость может ухудшаться дымом, пылью или мглою.
Явления - указаны атмосферные явления, наблюдавшиеся в срок или в последний час перед сроком; фигурными скобками обозначены явления, наблюдавшиеся между сроками (за 1-3 часа до срока); квадратными скобками обозначены град или гололедные отложения с указанием их диаметра в мм.
Облачность - указаны через наклонную черту общая и нижняя облачность в баллах и высота нижней границы облаков в метрах; квадратными скобками обозначены формы облаков: Ci - перистые, Cs - перисто-слоистые, Cc - перисто-кучевые, Ac - высококучевые, As - высокослоистые, Sc - слоисто-кучевые, Ns - слоисто-дождевые, Cu - кучевые, Cb - кучево-дождевые. Подробнее классификацию облаков см. в Атласе облаков (PDF).
T - Температура воздуха - температура, измеренная на высоте 2 м над землей.
Td - Температура точки росы - температура, при понижении до которой содержащийся в воздухе водяной пар достигнет насыщения.
f - Относительная влажность воздуха - влажноcть воздуха, измеренная на высоте 2 м над землей.
Te - Эффективная температура - температура, которую ощущает одетый по сезону человек в тени. Характеристика душности погоды. При расчете учитывается влияние влажности воздуха и скорости ветра на теплоощущения человека.
Tes - Эффективная температура на солнце - температура, которую ощущает человек, с поправкой на солнечный нагрев. Характеристика знойности погоды. Зависит от высоты солнца над горизонтом, облачности и скорости ветра. Ночью, в пасмурную погоду, а также при ветре 12 м/с и более поправка равна нулю.
P - Атмосферное давление - приведенное к уровню моря атмосферное давление.
Po - Атмосферное давление - измеренное на уровне метеостанции атмосферное давление.
Tmin - Минимальная температура - минимум температуры воздуха на высоте 2 м над землей.
Tmax - Максимальная температура - максимум температуры воздуха на высоте 2 м над землей.
R - Количество осадков - Количество выпавших осадков за период времени, мм. При наведении курсора мыши на число - период времени, за который выпало указанное количество осадков.
R24 - Количество осадков - Количество выпавших осадков за 24 часа, мм.
S - Снежный покров - Высота снежного покрова, см. При наведении курсора мыши на число - состояние снежного покрова и степень покрытия местности в баллах.